SL-12 DEB, 25798

Orbit data source: Space-Track

SL-12 DEB, 25798 is space debris in HEO originally from a launch on Tue, 10 Jan 1989 UTC launched from the Tyuratam Missile And Space Complex (TTMTR). Debris objects in space refer to the collection of defunct objects orbiting the Earth. Examples of debris include non-operational satellites, rocket bodies, and fragments generated from explosions, collisions, or faulty payload assembly.

Loading next visibility...
Identifier
25798, 1989-001K
Orbit
HEO
Country
Flag of CISCIS
Related business
Manufacturer
Unknown
Mission
Spacecraft
Bus & Motor
Unknown
Mass
Unknown
Launch date (UTC)
1989-01-10 (37 years ago)
Launch vehicle
Unknown
Launch site
Tyuratam Missile And Space Complex (TTMTR)
Object type
Payload
Rocket body
Debris
Shape & HBR
Unknown shape, 0.5 m
Radar Cross Section
Medium (>0.1 m² and <1 m²)

Expand to show TLE details & history
Last TLE update: 3 days ago

TLE from 3 days ago
0 SL-12 DEB
1 25798U 89001K   26170.34058944  .00000060  00000-0  64833-3 0  9995
2 25798  64.9875  24.3904 4391712 224.2036 342.7833  6.09347551 11754
Epoch: 2026-06-19T08:10Z
TLE epoch observation values (Epoch: 2026-06-19T08:10:26.927Z)
Latitude
1.63011°
Longitude
173.45327°
Altitude
1,456.513 km
Speed
8.384 km/s
True Right ascension
13h 34m 32s
True Declination
1° 37' 16"
Sunlit
Object was in daylight at epoch
Visualization orbit readout
Latitude
Unknown
Longitude
Unknown
Altitude
Unknown
Speed
Unknown
Apparent Right ascension
Unknown
Apparent Declination
Unknown
Sunlit
N/A
Visualization observer readout
Local Sidereal Time
02:18:52
Azimuth
Unknown
Elevation
Unknown
Doppler factor
Unknown
Orbital elements
Apogee altitude
11,842.618 km
Perigee altitude
722.286 km
Semi-major axis
12,660.589 km
Eccentricity
0.43917
Inclination
64.9875°
RAAN
24.3904°
Arg. of periapsis
224.2036°
True anomaly
314.01225°
Mean anomaly
342.7833°
Eccentric anomaly
330.32626°
Mean motion
1.52357 °/min
Orbital period
236.29 mins
BSTAR
0.00064833
Loading maneuver chart data...
Computing Atmospheric mass density...

Documentation

Showing up to 5 results
|